CW5532 Weather Reports


time (UTC)temp
C
wind
direction
speed
KPH
gust
KPH
rain 1hr
cm
rain 24hr
cm
rain mn
cm
humidity
%
barometer
mb
20260507210708 11 334 0.0 0.0 0.00 0.00 0.00 83 1012.7
20260507210208 11 333 0.0 0.0 0.00 0.00 0.00 82 1012.7
20260507203708 12 227 0.0 0.0 0.00 0.00 0.00 82 1012.6
20260507200708 13 227 0.0 0.0 0.00 0.00 0.00 80 1012.3
20260507193708 14 101 0.0 0.0 0.00 0.00 0.00 78 1011.9
20260507193208 14 101 0.0 0.0 0.00 0.00 0.00 78 1011.8
20260507190708 15 93 0.0 11.3 0.00 0.00 0.00 76 1011.4
20260507183708 15 117 1.6 9.7 0.00 0.00 0.00 73 1011.0
20260507183208 16 105 4.8 14.5 0.00 0.00 0.00 72 1010.9
20260507180208 17 128 0.0 11.3 0.00 0.00 0.00 69 1010.1
20260507173208 17 134 0.0 16.1 0.00 0.00 0.00 69 1010.1
20260507163708 17 114 11.3 22.5 0.00 0.00 0.00 65 1010.0
20260507160707 19 132 1.6 14.5 0.00 0.00 0.00 60 1009.5
20260507153708 20 195 0.0 11.3 0.00 0.00 0.00 60 1009.5
20260507150207 18 170 8.0 22.5 0.00 0.00 0.00 62 1009.8
20260507140207 18 137 8.0 24.1 0.00 0.00 0.00 65 1010.4
20260507133708 20 149 6.4 20.9 0.00 0.00 0.00 59 1010.3
20260507133207 20 113 8.0 19.3 0.00 0.00 0.00 55 1010.2
20260507130707 20 118 1.6 19.3 0.00 0.00 0.00 52 1010.5
20260507113707 20 118 3.2 19.3 0.00 0.00 0.00 55 1011.2
20260507110707 19 176 0.0 4.8 0.00 0.00 0.00 58 1011.7
20260507103706 18 117 3.2 9.7 0.00 0.00 0.00 62 1012.1
20260507103207 18 190 3.2 14.5 0.00 0.00 0.00 62 1012.2
20260507093207 17 122 1.6 9.7 0.00 0.00 0.00 66 1012.6
20260507090708 17 68 0.0 4.8 0.00 0.00 0.00 69 1012.4
20260507083707 16 93 3.2 8.0 0.00 0.00 0.00 71 1012.6
20260507080707 15 78 0.0 0.0 0.00 0.00 0.00 74 1012.9
20260507073207 14 117 0.0 0.0 0.00 0.00 0.00 75 1013.2
20260507063207 11 252 0.0 0.0 0.00 0.00 0.00 82 1012.8
20260507053206 7 229 0.0 0.0 0.00 0.00 0.00 85 1012.5
20260507050706 6 270 0.0 0.0 0.00 0.00 0.00 85 1012.5
20260507043706 6 227 0.0 0.0 0.00 0.00 0.00 85 1012.3
20260507040706 6 257 0.0 0.0 0.00 0.00 0.00 85 1012.4
20260507033707 6 264 0.0 0.0 0.00 0.00 0.00 85 1012.3
20260507023706 6 253 0.0 0.0 0.00 0.00 0.00 84 1012.2
20260507023206 6 256 0.0 0.0 0.00 0.00 0.00 84 1012.3
20260507020706 7 262 0.0 0.0 0.00 0.00 0.00 84 1012.2
20260507010206 7 263 0.0 0.0 0.00 0.00 0.00 84 1012.4
20260507000706 7 291 0.0 0.0 0.00 0.00 0.00 83 1012.8
20260506223706 9 291 0.0 0.0 0.00 0.03 0.00 82 1012.6
20260506223206 10 291 0.0 0.0 0.00 0.03 0.00 82 1012.5